Monroe, LA

4:58 AM CST on February 24, 2018 (GMT -0600)
Monroe Regional

Weather History for KMLU - August, 2013

Change the Weather History Date:

Wednesday, August 7, 2013

  Actual Average Record
Temperature  
Mean Temperature 88 °F 83 °F  
Max Temperature 100 °F 95 °F 105 °F (1947)
Min Temperature 76 °F 72 °F 63 °F (2004)
Degree Days  
Heating Degree Days 0 0  
Month to date heating degree days 0 0  
Since 1 June heating degree days 0 0  
Since 1 July heating degree days 0 0  
Cooling Degree Days 23 18  
Month to date cooling degree days 151 126  
Year to date cooling degree days 1442 1586  
Since 1 June cooling degree days 1092 1151  
Growing Degree Days 38 (Base 50)    
Moisture  
Dew Point 72 °F    
Average Humidity 65    
Maximum Humidity 91    
Minimum Humidity 38    
Precipitation  
Precipitation 0.00 in 0.10 in 2.34 in (1985)
Month to date precipitation T 0.68  
Year to date precipitation 32.23 32.98  
Snow  
Snow 0.00 in - - ()
Month to date snowfall 0.0  
Since 1 June snowfall 0.0  
Since 1 July snowfall 0.0  
Snow Depth 0.00 in    
Sea Level Pressure  
Sea Level Pressure 29.91 in    
Wind  
Wind Speed 4 mph (SSW)    
Max Wind Speed 12 mph    
Max Gust Speed 15 mph    
Visibility 9 miles    
Events      
T = Trace of Precipitation, MM = Missing Value Source: NWS Daily Summary

Daily Weather History Graph

Daily Weather History Graph

Search for Another Location

Airport or City:

Trip Planner

Search our weather history database for the weather conditions in past years. The results will help you decide how hot, cold, wet, or windy it might be!

Date:

Astronomy

Aug. 07, 2013 Rise Set
Actual Time 6:26 AM CDT 8:00 PM CDT
Civil Twilight 6:00 AM CDT 8:26 PM CDT
Nautical Twilight 5:28 AM CDT 8:58 PM CDT
Astronomical Twilight 4:55 AM CDT 9:31 PM CDT
Moon 7:09 AM CDT (8/7) 8:16 PM CDT (8/7)
Length of Visible Light 14h 26m
Length of Day
13h 33m
New Moon, 1% of the Moon is Illuminated
Aug 7
New Moon
Aug 14
First Quarter
Aug 20
Full
Aug 28
Last Quarter
Sep 5
New

Hourly Weather History & Observations

Time (CDT) Temp. Heat Index Dew Point Humidity Pressure Visibility Wind Dir Wind Speed Gust Speed Precip Events Conditions
12:53 AM 82.0 °F 87.4 °F 73.0 °F 74% 29.91 in 10.0 mi South 6.9 mph - N/A   Clear
1:53 AM 81.0 °F 86.2 °F 73.9 °F 79% 29.92 in 10.0 mi SSW 4.6 mph - N/A   Clear
2:53 AM 80.1 °F 84.5 °F 73.9 °F 81% 29.91 in 10.0 mi SSW 4.6 mph - N/A   Clear
3:53 AM 79.0 °F - 75.0 °F 88% 29.90 in 10.0 mi South 4.6 mph - N/A   Clear
4:53 AM 78.1 °F - 75.0 °F 90% 29.90 in 10.0 mi SSW 4.6 mph - N/A   Clear
5:53 AM 77.0 °F - 73.9 °F 90% 29.91 in 9.0 mi South 4.6 mph - N/A   Clear
6:53 AM 77.0 °F - 73.9 °F 90% 29.92 in 7.0 mi Calm Calm - N/A   Clear
7:53 AM 80.1 °F 85.1 °F 75.0 °F 85% 29.94 in 9.0 mi SSW 6.9 mph - N/A   Clear
8:53 AM 84.0 °F 91.9 °F 75.0 °F 74% 29.95 in 10.0 mi SW 9.2 mph - N/A   Clear
9:53 AM 87.1 °F 94.5 °F 73.0 °F 63% 29.97 in 10.0 mi WSW 5.8 mph - N/A   Clear
10:53 AM 90.0 °F 96.4 °F 71.1 °F 54% 29.96 in 10.0 mi Variable 3.5 mph - N/A   Clear
11:53 AM 91.9 °F 98.4 °F 71.1 °F 50% 29.95 in 10.0 mi NW 3.5 mph - N/A   Clear
12:53 PM 93.9 °F 98.6 °F 68.0 °F 43% 29.93 in 10.0 mi Variable 5.8 mph - N/A   Clear
1:53 PM 96.1 °F 101.0 °F 68.0 °F 40% 29.91 in 6.0 mi Variable 3.5 mph - N/A   Haze
2:53 PM 98.2 °F 105.4 °F 70.0 °F 40% 29.90 in 6.0 mi South 5.8 mph - N/A   Haze
3:53 PM 98.1 °F 103.0 °F 68.0 °F 37% 29.88 in 6.0 mi WSW 8.1 mph - N/A   Haze
4:53 PM 96.1 °F 103.5 °F 71.1 °F 44% 29.87 in 10.0 mi South 5.8 mph - N/A   Haze
5:53 PM 97.0 °F 104.8 °F 71.1 °F 43% 29.86 in 10.0 mi Variable 3.5 mph - N/A   Haze
6:53 PM 93.9 °F 100.8 °F 71.1 °F 47% 29.86 in 10.0 mi South 4.6 mph - N/A   Haze
7:53 PM 89.1 °F 94.1 °F 70.0 °F 53% 29.86 in 10.0 mi SSW 5.8 mph - N/A   Haze
8:53 PM 86.0 °F 93.0 °F 73.0 °F 65% 29.87 in 10.0 mi South 3.5 mph - N/A   Haze
9:53 PM 84.0 °F 89.6 °F 72.0 °F 67% 29.88 in 10.0 mi SSE 3.5 mph - N/A   Haze
10:53 PM 82.9 °F 88.0 °F 72.0 °F 69% 29.90 in 10.0 mi South 4.6 mph - N/A   Haze
11:53 PM 79.0 °F - 72.0 °F 79% 29.91 in 10.0 mi Calm Calm - N/A   Haze